Weather in Medvedevo

Russia / Perm Krai     57°21′15″N   57°29′01″E
temp.,
°C
wind,
m/s
gust,
m/s
humid.,
%
clouds,
%
prec.,
mm/h
press.,
hPa
HPBL,
m
7 march, sun
sun723:00−17wsw239659 0.0 101122
02:00−18sw229869 0.0 101120
05:00−18ssw229784 0.1 101124
08:00−18ssw229798 0.1 101022
11:00−14sw239199 0.2 1010305
14:00−12w2282100 0.1 1008633
17:00−11w2381100 0.2 1008673
20:00−16s129270 0.0 100820
8 march, mon
mon823:00−16sw339678 0.1 100942
02:00−19ssw339954 0.0 100828
05:00−20sse3310063 0.0 100740
08:00−17se5995100 0.0 1004236
11:00−13sse61093100 0.6 1002501
14:00−9sse6991100 0.4 999850
17:00−7sse61093100 0.8 997719
20:00−7sw71483100 1.1 996908
9 march, tue
tue923:00−7sw7149185 1.4 997916
02:00−7sw81591100 0.4 999794
05:00−9sw71489100 0.5 1002580
08:00−14ssw479696 0.0 1003135
11:00−11ssw249397 0.1 1002270
14:00−7wsw1190100 0.1 1002293
17:00−7wnw4591100 0.7 1004506
20:00−10wnw479558 0.2 1006238
10 march, wed
wed1023:00−15nnw349679 0.4 100879
02:00−21nnw2310091 0.0 100922
05:00−24nnw339985 0.0 100938
08:00−27nnw349873 0.0 101080
11:00−24nnw469664 0.0 1010245
14:00−20nnw589267 0.0 1011371
17:00−18nw588734 0.0 1011501
20:00−24nw49945 0.0 1013162
11 march, thu
thu1123:00−26nw34963 0.0 101449
02:00−27w33960 0.0 101430
05:00−27wsw349724 0.0 101558
08:00−25wsw499796 0.0 1014229
11:00−21wsw599698 0.1 1014447
14:00−17w6891100 0.3 1014677
17:00−17wsw5992100 0.4 1014569
20:00−17wsw51194100 0.2 1015542